Date String (YYYY-MM-DD hh:mm:ss) UTC,Instrument flags,Ambient pressure (hPa),Sample flow (lpm),Bypass flow (lpm),Sample temperature (°C),Ambient temperature (°C),ASC tube jacket temperature (°C),LED temperature (°C),Box temperature (°C),Sample RH (%),Span deviation,Mass concentration (μg/m³),Mass concentration (μg/m³),Mass concentration (μg/m³)
DateTimeUTC,F1_M11,P_M11,Q1_M11,Q2_M11,T1_M11,T2_M11,T3_M11,T4_M11,T5_M11,U1_M11,ZSPAN_M11,X2_M11,X0_M11,X1_M11
2023-05-26 05:00:00,,0830.0,4.99,0.00,29.1,27.6,00.0,37.5,30.7,26.1,0000.0,0004.72,0011.13,0003.65
2023-05-26 05:01:00,,0830.0,5.00,0.00,29.1,27.6,00.0,37.5,30.8,26.0,0000.0,0004.71,0011.08,0003.63
2023-05-26 05:02:00,,0830.0,5.00,0.00,29.1,27.6,00.0,37.5,30.8,25.7,0000.1,0004.68,0011.16,0003.60
2023-05-26 05:03:00,,0830.0,5.00,0.00,29.2,27.6,00.0,37.5,30.8,25.4,0000.0,0004.74,0011.42,0003.58
2023-05-26 05:04:00,,0830.1,5.00,0.00,29.2,27.7,00.0,37.5,30.8,25.2,0001.3,0004.76,0011.26,0003.55
2023-05-26 05:05:00,,0830.0,5.00,0.00,29.2,27.7,00.0,37.5,30.8,25.3,0001.2,0004.79,0011.36,0003.53
2023-05-26 05:06:00,,0830.0,5.01,0.00,29.2,27.7,00.0,37.5,30.8,25.5,0002.3,0004.78,0010.84,0003.51
2023-05-26 05:07:00,,0830.0,5.00,0.00,29.2,27.7,00.0,37.5,30.8,25.6,0002.5,0004.78,0010.55,0003.51
2023-05-26 05:08:00,,0830.0,5.00,0.00,29.2,27.7,00.0,37.5,30.8,25.6,0000.3,0004.79,0010.65,0003.50
2023-05-26 05:09:00,,0830.0,5.01,0.00,29.2,27.7,00.0,37.5,30.8,25.6,0000.0,0004.76,0010.34,0003.49
2023-05-26 05:10:00,,0829.9,5.00,0.00,29.2,27.7,00.0,37.6,30.8,25.6,0000.0,0004.78,0010.59,0003.49
2023-05-26 05:11:00,,0829.8,4.99,0.00,29.2,27.7,00.0,37.6,30.8,25.6,0000.0,0004.71,0010.51,0003.48
2023-05-26 05:12:00,,0829.8,4.99,0.00,29.2,27.7,00.0,37.6,30.8,25.2,0000.0,0004.71,0010.30,0003.47
2023-05-26 05:13:00,,0829.8,5.00,0.00,29.2,27.7,00.0,37.6,30.8,25.1,0000.0,0004.70,0010.76,0003.47
2023-05-26 05:14:00,,0829.8,4.99,0.00,29.2,27.7,00.0,37.6,30.8,25.1,0000.0,0004.66,0010.43,0003.46
2023-05-26 05:15:00,,0829.8,5.00,0.00,29.2,27.7,00.0,37.6,30.8,25.1,0000.0,0004.65,0010.36,0003.45
2023-05-26 05:16:00,,0829.7,5.00,0.00,29.2,27.7,00.0,37.6,30.8,25.2,0000.0,0004.62,0010.27,0003.45
2023-05-26 05:17:00,,0829.7,5.01,0.00,29.2,27.6,00.0,37.6,30.8,25.1,0001.1,0004.58,0010.10,0003.45
2023-05-26 05:18:00,,0829.7,5.01,0.00,29.2,27.6,00.0,37.6,30.8,25.0,0000.9,0004.55,0010.09,0003.44
2023-05-26 05:19:00,,0829.7,5.01,0.00,29.2,27.6,00.0,37.6,30.8,25.1,0000.0,0004.57,0010.22,0003.43
2023-05-26 05:20:00,,0829.8,5.00,0.00,29.2,27.6,00.0,37.6,30.8,25.1,0000.0,0004.51,0009.99,0003.43
2023-05-26 05:21:00,,0829.8,4.99,0.00,29.2,27.6,00.0,37.6,30.8,25.0,0000.0,0004.49,0009.92,0003.41
2023-05-26 05:22:00,,0829.8,4.99,0.00,29.2,27.5,00.0,37.6,30.8,25.0,0000.0,0004.48,0010.31,0003.40
2023-05-26 05:23:00,,0829.8,5.00,0.00,29.2,27.6,00.0,37.6,30.8,25.1,0001.1,0004.44,0010.37,0003.39
2023-05-26 05:24:00,,0829.8,5.00,0.00,29.2,27.6,00.0,37.6,30.8,25.5,0001.9,0004.42,0009.72,0003.39
2023-05-26 05:25:00,,0829.8,5.00,0.00,29.2,27.6,00.0,37.6,30.8,26.1,0000.0,0004.46,0009.77,0003.44
2023-05-26 05:26:00,,0829.8,5.00,0.00,29.2,27.6,00.0,37.6,30.8,26.4,0000.0,0004.48,0009.70,0003.48
2023-05-26 05:27:00,,0829.7,5.00,0.00,29.2,27.6,00.0,37.6,30.8,26.5,0000.0,0004.49,0009.63,0003.52
2023-05-26 05:28:00,,0829.7,5.00,0.00,29.2,27.6,00.0,37.6,30.8,26.4,0000.0,0004.52,0009.68,0003.57
2023-05-26 05:29:00,,0829.7,5.01,0.00,29.2,27.6,00.0,37.6,30.8,26.4,0000.0,0004.54,0009.58,0003.61
2023-05-26 05:30:00,,0829.7,4.99,0.00,29.2,27.7,00.0,37.6,30.8,26.4,0000.0,0004.54,0009.49,0003.63
2023-05-26 05:31:00,,0829.7,4.99,0.00,29.2,27.7,00.0,37.6,30.8,26.3,0002.7,0004.63,0009.59,0003.67
2023-05-26 05:32:00,,0829.7,5.00,0.00,29.2,27.7,00.0,37.6,30.8,26.4,0003.3,0004.64,0009.65,0003.73
2023-05-26 05:33:00,,0829.7,4.99,0.00,29.2,27.7,00.0,37.6,30.8,26.4,0003.6,0004.70,0009.87,0003.79
2023-05-26 05:34:00,,0829.6,5.01,0.00,29.2,27.7,00.0,37.6,30.8,26.4,0003.6,0004.77,0009.87,0003.86
2023-05-26 05:35:00,,0829.6,5.01,0.00,29.2,27.6,00.0,37.6,30.8,26.3,0003.5,0004.84,0009.95,0003.91
2023-05-26 05:36:00,,0829.6,5.00,0.00,29.2,27.6,00.0,37.6,30.8,26.1,0003.5,0004.80,0009.95,0003.93
2023-05-26 05:37:00,,0829.6,4.99,0.00,29.2,27.6,00.0,37.6,30.8,25.9,0003.2,0004.77,0009.88,0003.94
2023-05-26 05:38:00,,0829.5,4.99,0.00,29.2,27.5,00.0,37.6,30.8,25.8,0003.8,0004.80,0009.99,0003.95
2023-05-26 05:39:00,,0829.5,5.01,0.00,29.2,27.5,00.0,37.6,30.8,25.3,0004.0,0004.75,0009.82,0003.94
2023-05-26 05:40:00,,0829.6,5.01,0.00,29.2,27.5,00.0,37.6,30.8,25.1,0004.0,0004.72,0009.76,0003.92
2023-05-26 05:41:00,,0829.5,5.00,0.00,29.2,27.5,00.0,37.6,30.7,24.7,0001.9,0004.67,0009.62,0003.91
2023-05-26 05:42:00,,0829.5,4.99,0.00,29.2,27.4,00.0,37.6,30.7,24.1,0000.0,0004.57,0009.42,0003.87
2023-05-26 05:43:00,,0829.4,5.00,0.00,29.1,27.4,00.0,37.6,30.7,24.3,0000.0,0004.49,0009.11,0003.83
2023-05-26 05:44:00,,0829.5,5.01,0.00,29.1,27.4,00.0,37.6,30.7,24.3,0000.0,0004.40,0008.44,0003.78
2023-05-26 05:45:00,,0829.4,5.00,0.00,29.1,27.4,00.0,37.6,30.7,24.3,0000.0,0004.30,0008.43,0003.73
2023-05-26 05:46:00,,0829.4,5.01,0.00,29.1,27.4,00.0,37.6,30.7,24.2,0000.0,0004.20,0008.21,0003.69
2023-05-26 05:47:00,,0829.4,5.00,0.00,29.1,27.4,00.0,37.5,30.7,24.0,0000.0,0004.14,0007.97,0003.64
2023-05-26 05:48:00,,0829.4,5.00,0.00,29.1,27.4,00.0,37.5,30.7,24.0,0000.0,0004.10,0007.89,0003.61
2023-05-26 05:49:00,,0829.4,5.00,0.00,29.1,27.4,00.0,37.5,30.7,24.5,0000.0,0004.02,0007.70,0003.58
2023-05-26 05:50:00,,0829.3,5.00,0.00,29.1,27.4,00.0,37.5,30.7,24.5,0000.0,0004.01,0007.97,0003.56
2023-05-26 05:51:00,,0829.4,4.99,0.00,29.1,27.4,00.0,37.5,30.7,24.4,0000.0,0003.99,0008.17,0003.56
2023-05-26 05:52:00,,0829.3,5.00,0.00,29.1,27.3,00.0,37.5,30.7,24.3,0000.0,0003.96,0008.07,0003.54
2023-05-26 05:53:00,,0829.3,4.99,0.00,29.1,27.3,00.0,37.5,30.7,24.0,0000.0,0003.96,0008.04,0003.55
2023-05-26 05:54:00,,0829.4,5.00,0.00,29.1,27.3,00.0,37.5,30.7,24.0,0000.0,0003.99,0008.06,0003.56
2023-05-26 05:55:00,,0829.4,5.00,0.00,29.1,27.3,00.0,37.5,30.6,24.0,0000.0,0004.01,0007.91,0003.55
2023-05-26 05:56:00,,0829.4,5.01,0.00,29.0,27.3,00.0,37.5,30.6,24.0,0000.0,0004.04,0007.79,0003.55
2023-05-26 05:57:00,,0829.4,5.00,0.00,29.0,27.3,00.0,37.5,30.6,23.7,0000.0,0004.07,0008.20,0003.54
2023-05-26 05:58:00,,0829.4,5.00,0.00,29.0,27.3,00.0,37.5,30.6,23.6,0000.0,0004.10,0008.31,0003.54
2023-05-26 05:59:00,,0829.4,5.00,0.00,29.0,27.3,00.0,37.5,30.6,23.5,0000.0,0004.11,0008.44,0003.53
